GW2010 Weather Reports


time (UTC)temp
C
wind
direction
speed
KPH
gust
KPH
rain 1hr
cm
rain 24hr
cm
rain mn
cm
humidity
%
barometer
mb
20260510190046 27 61 4.8 9.7 0.00 0.00 0.00 37 1014.1
20260510184541 28 42 4.8 16.1 0.00 0.00 0.00 37 1014.2
20260510183036 28 268 3.2 16.1 0.00 0.00 0.00 37 1014.3
20260510181535 28 56 4.8 12.9 0.00 0.00 0.00 38 1014.4
20260510180034 28 113 3.2 9.7 0.00 0.00 0.00 38 1014.4
20260510174533 27 263 1.6 16.1 0.00 0.00 0.00 41 1014.5
20260510173038 27 268 8.0 16.1 0.00 0.00 0.00 40 1014.5
20260510171533 26 290 3.2 14.5 0.00 0.00 0.00 39 1014.6
20260510170035 27 200 1.6 11.3 0.00 0.00 0.00 37 1014.6
20260510164553 27 242 1.6 14.5 0.00 0.00 0.00 36 1014.9
20260510163042 26 69 1.6 8.0 0.00 0.00 0.00 41 1015.0
20260510161540 26 75 8.0 14.5 0.00 0.00 0.00 44 1015.1
20260510160039 26 293 1.6 8.0 0.00 0.00 0.00 50 1015.2
20260510154533 25 268 4.8 12.9 0.00 0.00 0.00 50 1015.4
20260510153034 25 121 3.2 11.3 0.00 0.00 0.00 53 1015.7
20260510151549 25 105 3.2 9.7 0.00 0.00 0.00 57 1015.3
20260510150056 24 140 3.2 11.3 0.00 0.00 0.00 59 1015.4
20260510144609 23 0 0.0 9.7 0.00 0.00 0.00 62 1015.4
20260510143036 23 117 1.6 11.3 0.00 0.00 0.00 60 1015.3
20260510141536 22 150 3.2 12.9 0.00 0.00 0.00 62 1015.3
20260510140043 21 112 8.0 14.5 0.00 0.00 0.00 65 1015.3
20260510134549 21 141 3.2 12.9 0.00 0.00 0.00 70 1015.3
20260510133047 20 95 4.8 14.5 0.00 0.00 0.00 70 1015.1
20260510131544 20 94 4.8 8.0 0.00 0.00 0.00 74 1015.2
20260510130045 20 92 1.6 4.8 0.00 0.00 0.00 75 1014.8
20260510124541 18 0 3.2 9.7 0.00 0.00 0.00 80 1014.6
20260510123044 18 0 0.0 0.0 0.00 0.00 0.00 83 1014.6
20260510121544 18 0 0.0 0.0 0.00 0.00 0.00 85 1014.5
20260510120035 17 0 0.0 3.2 0.00 0.00 0.00 86 1014.3
20260510114600 17 0 0.0 0.0 0.00 0.00 0.00 87 1014.2
20260510113053 16 0 0.0 0.0 0.00 0.00 0.00 88 1014.0
20260510111545 16 0 0.0 0.0 0.00 0.00 0.00 88 1013.8
20260510110040 16 0 0.0 4.8 0.00 0.00 0.00 88 1013.7
20260510104547 16 0 0.0 8.0 0.00 0.00 0.00 88 1013.5
20260510103034 16 316 3.2 11.3 0.00 0.00 0.00 88 1013.2
20260510101543 16 0 0.0 0.0 0.00 0.00 0.00 88 1013.1
20260510100055 16 0 0.0 0.0 0.00 0.00 0.00 88 1012.7
20260510094550 16 0 0.0 0.0 0.00 0.00 0.00 87 1012.3
20260510093043 16 0 0.0 0.0 0.00 0.00 0.00 86 1012.1
20260510091549 16 0 0.0 0.0 0.00 0.00 0.00 86 1012.1
20260510090043 17 0 0.0 0.0 0.00 0.00 0.00 85 1011.9
20260510084542 17 0 0.0 0.0 0.00 0.00 0.00 85 1012.0
20260510083042 17 0 0.0 0.0 0.00 0.00 0.00 84 1011.8
20260510081536 17 0 0.0 0.0 0.00 0.00 0.00 84 1011.7
20260510080035 17 0 0.0 0.0 0.00 0.00 0.00 84 1011.7
20260510074545 17 0 0.0 0.0 0.00 0.00 0.00 83 1011.6
20260510073046 17 0 0.0 0.0 0.00 0.00 0.00 83 1011.5
20260510071539 17 0 0.0 0.0 0.00 0.00 0.00 82 1011.4
20260510070047 18 0 0.0 4.8 0.00 0.00 0.00 82 1011.6
20260510064549 18 328 3.2 12.9 0.00 0.00 0.00 81 1011.6
20260510063043 18 0 3.2 11.3 0.00 0.00 0.00 81 1011.6
20260510061541 18 321 3.2 11.3 0.00 0.00 0.00 80 1011.4
20260510060041 18 0 0.0 8.0 0.00 0.00 0.00 80 1011.6
20260510054534 18 0 1.6 8.0 0.00 0.00 0.00 80 1011.6
20260510053041 18 334 0.0 6.4 0.00 0.00 0.00 79 1011.8
20260510051543 18 333 1.6 9.7 0.00 0.00 0.00 79 1012.0
20260510050037 18 352 3.2 8.0 0.00 0.00 0.00 80 1011.9
20260510044537 18 0 1.6 6.4 0.00 0.00 0.00 81 1012.2
20260510043043 18 334 0.0 12.9 0.00 0.00 0.00 83 1012.0
20260510041549 17 0 0.0 0.0 0.00 0.00 0.00 87 1012.0
20260510040042 16 0 0.0 0.0 0.00 0.00 0.00 89 1012.0
20260510034549 16 0 0.0 0.0 0.00 0.00 0.00 88 1011.9
20260510033054 16 0 0.0 0.0 0.00 0.00 0.00 88 1011.9
20260510031543 16 0 0.0 0.0 0.00 0.00 0.00 88 1011.8
20260510030043 16 0 0.0 0.0 0.00 0.00 0.00 88 1011.8
20260510024543 17 0 0.0 0.0 0.00 0.00 0.00 86 1011.8
20260510023044 17 0 0.0 0.0 0.00 0.00 0.00 85 1011.7
20260510021539 17 0 0.0 0.0 0.00 0.00 0.00 84 1011.7
20260510020043 18 0 0.0 0.0 0.00 0.00 0.00 85 1011.5
20260510014541 18 0 0.0 0.0 0.00 0.00 0.00 84 1011.4
20260510013046 18 0 0.0 0.0 0.00 0.00 0.00 83 1011.2
20260510011535 18 0 0.0 0.0 0.00 0.00 0.00 82 1010.9
20260510010054 19 0 0.0 0.0 0.00 0.00 0.00 79 1010.8
20260510004539 20 0 0.0 0.0 0.00 0.00 0.00 78 1010.7
20260510003051 20 0 0.0 0.0 0.00 0.00 0.00 76 1010.7
20260510001541 21 0 0.0 0.0 0.00 0.00 0.00 75 1010.7
20260510000051 21 0 0.0 0.0 0.00 0.00 0.00 73 1010.5
20260509234546 21 0 0.0 6.4 0.00 0.00 0.00 71 1010.5
20260509233039 21 0 0.0 4.8 0.00 0.00 0.00 72 1010.1
20260509231536 22 0 0.0 9.7 0.00 0.00 0.00 71 1010.1
20260509230044 22 360 1.6 6.4 0.00 0.00 0.00 71 1009.9
20260509224541 22 196 4.8 16.1 0.00 0.00 0.00 70 1009.7
20260509223052 22 331 8.0 16.1 0.00 0.00 0.00 72 1009.9
20260509221546 22 330 6.4 17.7 0.00 0.00 0.00 69 1010.0
20260509220056 22 0 3.2 9.7 0.00 0.00 0.00 69 1009.9
20260509214550 22 236 3.2 9.7 0.00 0.00 0.00 70 1009.9
20260509213049 22 0 3.2 16.1 0.00 0.00 0.00 70 1009.9
20260509211546 22 267 6.4 12.9 0.00 0.00 0.00 72 1009.7
20260509210046 22 308 3.2 12.9 0.00 0.00 0.00 69 1009.6
20260509204555 21 263 3.2 9.7 0.00 0.00 0.00 71 1009.7
20260509203047 21 33 4.8 11.3 0.00 0.00 0.00 70 1009.8
20260509201541 21 286 9.7 19.3 0.00 0.00 0.00 70 1009.7
20260509200044 21 280 4.8 14.5 0.00 0.00 0.00 71 1010.0
20260509194545 21 316 6.4 17.7 0.00 0.00 0.00 70 1010.2
20260509193045 21 288 3.2 16.1 0.00 0.00 0.00 70 1010.3
20260509191552 21 64 6.4 17.7 0.00 0.00 0.00 69 1010.6